Location: Alzi
(42.3023°N, 9.3009°E)
Time: 13:57:49
(UTC+00:00)

Daily predictions for brighter satellites

Satellite Brightness Start Highest point End
(mag) Time Altitude Azimuth Time Altitude Azimuth Time Altitude Azimuth
STARLINK-1083 4.3 18:11:43 10° NW 18:15:36 40° NNE 18:19:27 10° E
Cosmos 1939 Rocket 3.5 18:12:22 10° S 18:16:17 61° W 18:20:12 10° NNW
STARLINK-1202 3.7 18:14:09 10° SW 18:18:12 81° NW 18:22:17 10° NE
KORONAS-FOTON 3.7 18:14:45 10° N 18:18:36 74° E 18:22:22 10° SSE
Cosmos 1943 Rocket 3.7 18:15:06 10° N 18:18:51 18° NE 18:22:36 10° E
STARLINK-1125 4.2 18:16:16 10° NW 18:20:12 43° NNE 18:24:05 10° ESE
Cosmos 1980 4.3 18:16:32 10° SW 18:22:09 63° WNW 18:27:48 10° NNE
SL-14 R/B 4.1 18:18:59 10° NNE 18:22:38 32° ENE 18:26:15 10° SE
STARLINK-1109 4.1 18:21:01 10° NW 18:24:57 45° NNE 18:28:41 11° ESE
STARLINK-1246 3.8 18:21:12 10° WSW 18:25:17 72° NW 18:29:24 10° NE
CZ-2D R/B 4.4 18:22:31 10° S 18:26:13 48° W 18:29:55 10° NNW
Cosmos 2315 Rocket 4.4 18:21:09 10° SSE 18:26:56 40° E 18:32:48 10° NNE
Cosmos 1766 3.3 18:23:22 10° S 18:27:22 87° W 18:31:22 10° N
STARLINK-1091 4.0 18:25:49 10° NW 18:29:47 49° NNE 18:33:19 13° ESE
Orbus 7S? 2.9 18:27:43 10° NW 18:30:32 57° SW 18:32:55 10° SSE
Meteor 2-8 Rocket 4.4 18:25:53 10° S 18:31:58 69° E 18:38:04 10° NNE
STARLINK-1066 2.9 18:29:00 10° NW 18:32:09 70° NE 18:34:49 14° ESE
STARLINK-1224 4.0 18:28:29 10° WSW 18:32:31 64° NNW 18:36:34 10° NE
STARLINK-1081 2.9 18:29:29 10° NW 18:32:36 70° NE 18:35:12 14° ESE
ADEOS Rocket 3.7 18:26:11 10° N 18:32:50 63° WNW 18:38:47 10° SSW
USA 234 3.5 18:26:38 10° ENE 18:32:57 49° SE 18:39:14 10° SSW
STARLINK-1070 2.9 18:29:56 10° NW 18:33:03 71° NE 18:35:38 14° ESE
STARLINK-1069 2.9 18:30:21 10° NW 18:33:30 72° NE 18:36:06 14° ESE
H-2A R/B 2.3 18:28:45 10° SSE 18:33:54 53° ENE 18:38:57 10° N
STARLINK-1085 2.9 18:30:48 10° NW 18:33:57 73° NE 18:36:32 14° ESE
STARLINK-1203 4.2 18:30:15 10° WSW 18:34:10 57° NNW 18:38:06 10° NE
STARLINK-1086 2.8 18:31:17 10° NW 18:34:25 73° NE 18:36:56 14° ESE
STARLINK-1095 2.8 18:31:45 10° NW 18:34:51 74° NE 18:37:22 15° ESE
HJ-1C 3.5 18:31:44 10° S 18:35:03 81° WSW 18:38:26 10° NNW
Cosmos 1626 2.6 18:31:39 10° N 18:35:10 39° ENE 18:38:39 10° SSE
STARLINK-1077 2.8 18:32:11 10° NW 18:35:19 75° NE 18:37:48 15° ESE
STARLINK-1075 2.8 18:32:38 10° NW 18:35:45 76° NE 18:38:14 15° ESE
SL-16 R/B 2.2 18:30:30 10° S 18:36:03 60° ESE 18:41:38 10° NNE
STARLINK-1093 2.8 18:33:03 10° NW 18:36:12 76° NE 18:38:42 15° ESE
CSL-04 Rocket 4.5 18:31:16 10° S 18:36:27 54° W 18:41:39 10° NNW
STARLINK-1074 2.8 18:33:30 10° NW 18:36:40 77° NE 18:39:08 15° ESE
STARLINK-1087 2.8 18:33:59 10° NW 18:37:06 78° NE 18:39:31 15° ESE
STARLINK-1225 4.1 18:33:09 10° WSW 18:37:10 59° NNW 18:41:12 10° NE
STARLINK-1088 2.8 18:34:26 10° NW 18:37:34 79° NE 18:39:58 16° ESE
STARLINK-1115 2.8 18:34:51 10° NW 18:38:01 80° NE 18:40:27 16° ESE
STARLINK-1076 2.8 18:35:19 10° NW 18:38:28 80° NE 18:40:53 16° ESE
SL-08 RB Rocket 4.5 18:34:39 10° SE 18:38:38 32° ENE 18:42:41 10° N
STARLINK-1092 2.8 18:35:45 10° NW 18:38:55 81° NE 18:41:18 16° ESE
STARLINK-1080 2.8 18:36:14 10° NW 18:39:22 82° NE 18:41:42 16° SE
STARLINK-1090 2.8 18:36:41 10° NW 18:39:49 83° NE 18:42:08 17° SE
STARLINK-1072 3.8 18:36:06 10° NW 18:40:05 57° NNE 18:43:08 16° ESE
STARLINK-1089 2.8 18:37:08 10° NW 18:40:15 84° NNE 18:42:33 17° SE
Resurs 01 Rocket 3.4 18:38:54 13° E 18:40:35 15° ENE 18:43:09 10° NNE
STARLINK-1107 2.8 18:37:36 10° NW 18:40:43 84° NE 18:43:00 17° SE
STARLINK-1230 4.3 18:37:55 10° WSW 18:41:55 55° NNW 18:45:56 10° NE
STARLINK-1096 3.7 18:40:26 10° NW 18:44:27 62° NNE 18:47:19 18° ESE
FREGAT/IRIS 2.5 18:42:05 10° SSE 18:44:40 49° ENE 18:47:20 10° N
STARLINK-1243 4.4 18:42:47 10° WSW 18:46:45 51° NNW 18:50:45 10° NE
Abrixas rocket 2.4 18:44:45 10° SW 18:47:33 40° SE 18:49:06 21° E
Cosmos 1302 Rocket 4.2 18:43:48 10° N 18:48:58 53° ENE 18:53:41 12° SE
Cosmos 1953 3.5 18:47:34 17° ESE 18:49:11 22° E 18:52:15 10° NE
STARLINK-1079 3.6 18:45:29 10° NW 18:49:30 67° NE 18:52:10 20° ESE
Cosmos 304 Rocket 4.0 18:46:50 10° NNW 18:51:38 75° WSW 18:56:23 10° SSE
Cosmos 1709 Rocket 3.9 18:46:02 10° N 18:52:13 69° E 18:58:19 10° SSE
Cosmos 1269 Rocket 4.1 18:47:39 10° SSW 18:52:56 82° WNW 18:58:17 10° NNE
MONITOR-E 3.7 18:51:13 16° SSE 18:53:11 62° ENE 18:55:49 10° N
STARLINK-1116 3.5 18:49:53 10° NW 18:53:57 72° NE 18:56:26 22° ESE
SL-24 R/B 4.5 18:54:31 10° NNE 18:58:41 37° E 19:02:23 10° SSE
Cosmos 2251 Rocket 4.2 18:55:54 10° SSE 19:00:36 33° E 19:05:22 10° NE
Cosmos 1455 Rocket 3.8 18:56:25 10° SSW 19:00:39 56° W 19:04:58 10° N
ISS -1.8 18:58:20 10° NW 19:00:57 20° NNE 19:02:41 14° NE
STARLINK-1094 3.5 18:59:08 10° NW 19:03:12 85° NE 19:05:21 27° SE
Cosmos 2297 3.7 18:57:43 10° NNW 19:03:25 85° ENE 19:08:44 12° SSE
Cosmos 2237 Rocket 4.1 19:00:53 10° WSW 19:05:51 31° NW 19:10:50 10° N
STARLINK-1117 3.5 19:03:59 10° NW 19:08:03 89° SSW 19:10:01 29° SE
CZ-2C R/B 3.1 19:05:41 10° NNE 19:10:26 36° E 19:14:07 15° SSE
Cosmos 1626 Rocket 3.4 19:06:34 10° N 19:11:00 76° E 19:14:44 14° SSE
STARLINK-1078 3.5 19:08:25 10° NW 19:12:29 82° SW 19:14:17 32° SE
BREEZE-M DEB (TANK) 3.8 19:04:52 10° WNW 19:13:42 43° SW 19:15:44 20° SSE
ARGOS 3.2 19:08:52 10° SSE 19:14:17 82° WSW 19:19:43 10° NNW
Cosmos 292 Rocket 4.4 19:12:43 10° N 19:17:11 37° ENE 19:18:32 31° E
STARLINK-1108 3.6 19:13:17 10° NW 19:17:21 75° SW 19:18:58 35° SE
Cosmos 1602 Rocket 3.5 19:14:32 10° N 19:19:00 72° E 19:21:45 23° SSE
IRIDIUM 104 4.4 19:15:18 10° N 19:20:28 57° E 19:23:42 22° SSE
USA 186 3.0 19:18:25 10° S 19:21:43 44° W 19:24:59 10° NNW
STARLINK-1071 3.7 19:17:57 10° WNW 19:22:00 69° SW 19:23:26 37° SSE
MOS 1 Rocket 3.7 19:19:43 10° NNE 19:24:51 51° E 19:29:46 12° S
MetOp-A 4.1 19:21:25 21° SSE 19:24:58 70° ENE 19:30:19 10° N
STARLINK-1110 3.8 19:22:25 10° WNW 19:26:27 63° SW 19:27:43 40° SSE
CZ-2C R/B 3.5 19:21:46 10° S 19:26:46 57° W 19:31:35 10° NNW
STARLINK-1124 3.9 19:23:49 10° WNW 19:27:55 62° SW 19:29:13 39° SSE
IRIDIUM 114 4.2 19:24:25 10° N 19:29:39 70° E 19:32:51 24° SSE
STARLINK-1128 4.4 19:26:11 10° NW 19:30:06 39° NNE 19:31:01 34° ENE
Cosmos 1470 3.5 19:26:31 10° SSW 19:30:17 52° W 19:34:07 10° N
SPOT 3 Rocket 3.5 19:29:48 20° SSE 19:33:26 89° WSW 19:38:41 10° NNW
STARLINK-1113 4.3 19:31:08 10° NW 19:35:05 42° NNE 19:35:47 38° NE
STARLINK-1122 4.0 19:31:54 10° WNW 19:35:52 53° SW 19:36:48 42° S
Cosmos 1825 Rocket 4.0 19:33:49 10° N 19:37:53 43° ENE 19:37:53 43° ENE
IRIDIUM 103 4.2 19:33:34 10° N 19:38:50 84° E 19:42:00 24° S
SJ-6B 4.0 19:36:17 12° S 19:39:46 43° W 19:43:43 10° NNW
STARLINK-1119 4.2 19:36:06 10° NW 19:40:05 44° NNE 19:40:34 42° NE
STARLINK-1126 4.2 19:36:54 10° WNW 19:40:50 48° SW 19:41:36 42° S
Cosmos 2369 Rocket 2.3 19:36:13 10° NNW 19:41:50 56° ENE 19:43:14 44° ESE
Cosmos 1726 2.7 19:42:57 44° NE 19:42:57 44° NE 19:45:42 10° NNE
H-2A R/B 4.2 19:39:47 10° WSW 19:43:17 12° SW 19:45:27 10° SSW
STARLINK-1114 4.1 19:41:06 10° NW 19:45:08 48° NNE 19:45:24 47° NE
STARLINK-1082 4.3 19:41:25 10° WNW 19:45:18 44° SW 19:45:55 40° SSW
Aureole 2 Rocket 3.2 19:43:22 10° NNW 19:45:56 41° NNE 19:45:56 41° NNE
NOSS 3-3 (A) 3.7 19:41:44 10° SSW 19:47:26 68° ESE 19:53:49 10° NE
NOSS 3-3 (C) 3.7 19:41:51 10° SSW 19:47:32 67° ESE 19:53:55 10° NE
Cosmos 1758 Rocket 3.4 19:43:30 10° N 19:47:51 66° E 19:47:54 66° E
STARLINK-1130 (DARKSAT) 4.0 19:46:03 10° NW 19:50:07 51° NNE 19:50:10 51° NE
STARLINK-1100 4.4 19:46:23 10° WNW 19:50:12 40° SW 19:50:38 38° SSW
Terra 4.1 19:53:53 12° NE 19:53:53 12° NE 19:54:37 10° NNE
Cosmos 1953 Rocket 4.4 19:50:05 10° N 19:53:22 37° NE 19:53:22 37° NE
STARLINK-1084 4.0 19:51:00 10° NW 19:54:56 55° NNE 19:54:56 55° NNE
Spot 2 Rocket 3.9 19:55:41 46° ENE 19:55:41 46° ENE 20:00:28 10° N
Cosmos 2184 Rocket 3.9 19:50:45 10° N 19:57:06 83° E 19:59:37 39° SSE
Cosmos 1606 Rocket 4.0 19:59:07 51° NE 19:59:07 51° NE 20:02:34 10° NNE
STARLINK-1098 4.0 19:55:59 10° NW 19:59:43 57° N 19:59:43 57° N
Cosmos 1943 3.0 20:01:04 48° S 20:02:32 67° ESE 20:08:11 10° NNE
Cosmos 1943 Rocket 2.2 19:57:41 10° NNW 20:03:14 77° WSW 20:04:35 52° S
Meteor 1-21 Rocket 4.5 19:58:03 10° NNW 20:03:33 64° W 20:06:08 31° SSW
Meteor 2-10 4.1 20:00:44 19° SSW 20:04:34 78° W 20:10:07 10° N
STARLINK-1123 4.1 20:00:57 10° NW 20:04:30 57° N 20:04:30 57° N
Resurs 1-3 4.4 20:05:32 37° SW 20:06:44 48° W 20:11:00 10° NNW
SL-8 R/B 4.1 20:02:39 10° WNW 20:07:19 50° NNE 20:07:34 50° NNE
STARLINK-1097 4.2 20:05:54 10° NW 20:09:16 54° NNW 20:09:16 54° NNW
ATLAS 2AS CENTAUR R/B 3.5 20:05:45 10° NNW 20:12:53 40° NE 20:14:21 36° ENE
H-2A R/B 4.4 20:09:45 10° SW 20:13:35 20° W 20:17:23 10° NW
USA 245 4.2 20:15:17 59° NE 20:15:17 59° NE 20:20:24 10° N
STARLINK-1099 4.4 20:10:53 10° NW 20:14:04 50° NW 20:14:04 50° NW
USA 234 3.9 20:09:38 10° NE 20:15:59 55° NNW 20:22:18 10° WSW
Resurs 01 Rocket 2.1 20:16:28 54° WSW 20:16:37 55° W 20:20:58 10° NNW
Cosmos 2154 Rocket 3.9 20:11:50 10° N 20:18:14 78° E 20:19:00 68° SE
Cosmos 2228 4.0 20:22:40 42° N 20:22:40 42° N 20:25:37 10° N
Cosmos 1953 4.4 20:23:07 16° WSW 20:25:25 26° WNW 20:28:48 10° NNW
Nadezhda 1 Rocket 4.1 20:29:47 43° SSW 20:32:03 74° W 20:38:27 10° N
ISS -0.7 20:34:50 10° NW 20:35:39 16° NW 20:35:39 16° NW
MetOp-B 4.4 20:40:10 62° W 20:40:10 62° W 20:45:20 10° NNW
ERS-1 Rocket 4.1 20:48:38 37° N 20:48:38 37° N 20:51:42 10° N
CZ-2C R/B 4.4 20:46:12 10° N 20:50:35 29° WNW 20:54:57 10° SW
Aureole 1 Rocket 4.4 21:01:50 61° SW 21:03:17 76° WNW 21:10:04 10° NNE
Cosmos 1656 Rocket 4.4 20:57:47 10° NNW 21:02:03 50° NW 21:02:03 50° NW
COSMOS 2455 4.0 21:11:11 10° NNW 21:15:09 36° N 21:15:09 36° N
Cosmos 2369 Rocket 4.1 21:21:12 10° NW 21:25:03 21° W 21:25:03 21° W
Terra 4.1 21:32:45 21° NNW 21:32:45 21° NNW 21:34:22 10° NNW
NOSS 3-4 (A) 4.1 21:24:24 10° NW 21:30:09 63° NW 21:30:09 63° NW
NOSS 3-4 (C) 4.1 21:24:30 10° NW 21:30:14 63° NW 21:30:14 63° NW
ATLAS 2AS CENTAUR R/B 3.8 21:56:53 10° NW 22:01:48 39° WNW 22:01:48 39° WNW
CZ-4C R/B 4.3 22:33:18 10° NNW 22:38:44 28° NNE 22:38:44 28° NNE
SL-16 R/B 4.5 23:52:44 23° NE 23:52:44 23° NE 23:56:01 10° N
